| time (UTC) | temp F | wind direction | speed knots | gust knots | rain 1hr in | rain 24hr in | rain mn in | humidity % | barometer mb |
| 20260506033957 | 77 | 101 | 0.0 | 3.5 | 0.00 | 0.00 | 0.00 | 78 | 1014.5 |
| 20260506033455 | 77 | 108 | 0.0 | 4.3 | 0.00 | 0.00 | 0.00 | 77 | 1014.3 |
| 20260506032957 | 77 | 110 | 0.0 | 5.2 | 0.00 | 0.00 | 0.00 | 77 | 1014.4 |
| 20260506032455 | 78 | 120 | 2.6 | 5.2 | 0.00 | 0.00 | 0.00 | 77 | 1014.5 |
| 20260506031956 | 78 | 114 | 2.6 | 4.3 | 0.00 | 0.00 | 0.00 | 77 | 1014.3 |
| 20260506031456 | 77 | 104 | 0.0 | 7.0 | 0.00 | 0.00 | 0.00 | 77 | 1014.3 |
| 20260506030956 | 77 | 123 | 0.0 | 7.0 | 0.00 | 0.00 | 0.00 | 77 | 1014.4 |
| 20260506030457 | 77 | 117 | 0.9 | 5.2 | 0.00 | 0.00 | 0.00 | 78 | 1014.5 |
| 20260506030226 | 76 | 107 | 3.5 | 7.0 | 0.00 | 0.00 | 0.00 | 79 | 1014.4 |
| 20260506025455 | 76 | 134 | 0.0 | 7.0 | 0.00 | 0.00 | 0.00 | 78 | 1014.4 |
| 20260506024957 | 77 | 99 | 0.0 | 7.0 | 0.00 | 0.00 | 0.00 | 77 | 1014.6 |
| 20260506024455 | 78 | 123 | 2.6 | 7.0 | 0.00 | 0.00 | 0.00 | 78 | 1014.6 |
| 20260506023956 | 78 | 120 | 5.2 | 7.0 | 0.00 | 0.00 | 0.00 | 75 | 1014.6 |
| 20260506023726 | 77 | 110 | 0.0 | 5.2 | 0.00 | 0.00 | 0.00 | 76 | 1014.6 |
| 20260506022956 | 77 | 141 | 0.0 | 7.0 | 0.00 | 0.00 | 0.00 | 77 | 1014.7 |
| 20260506022456 | 78 | 101 | 0.0 | 7.0 | 0.00 | 0.00 | 0.00 | 76 | 1014.7 |
| 20260506022005 | 77 | 105 | 0.0 | 7.0 | 0.00 | 0.00 | 0.00 | 76 | 1014.6 |
| 20260506021956 | 78 | 154 | 3.5 | 7.0 | 0.00 | 0.00 | 0.00 | 77 | 1014.7 |
| 20260506021228 | 77 | 135 | 4.3 | 7.0 | 0.00 | 0.00 | 0.00 | 76 | 1014.6 |
| 20260506020455 | 78 | 138 | 1.7 | 7.0 | 0.00 | 0.00 | 0.00 | 76 | 1014.9 |
| 20260506015956 | 77 | 176 | 3.5 | 7.0 | 0.00 | 0.00 | 0.00 | 78 | 1014.7 |
| 20260506015727 | 76 | 148 | 0.0 | 5.2 | 0.00 | 0.00 | 0.00 | 80 | 1015.1 |
| 20260506014957 | 76 | 110 | 0.0 | 7.0 | 0.00 | 0.00 | 0.00 | 78 | 1014.9 |
| 20260506014455 | 76 | 170 | 1.7 | 7.0 | 0.00 | 0.00 | 0.00 | 80 | 1015.2 |
| 20260506013956 | 76 | 163 | 4.3 | 8.7 | 0.00 | 0.00 | 0.00 | 81 | 1015.2 |
| 20260506013728 | 76 | 136 | 4.3 | 8.7 | 0.00 | 0.00 | 0.00 | 81 | 1014.9 |
| 20260506013604 | 76 | 134 | 4.3 | 7.8 | 0.00 | 0.00 | 0.00 | 81 | 1015.0 |
| 20260506012726 | 76 | 111 | 5.2 | 7.8 | 0.00 | 0.00 | 0.00 | 81 | 1015.1 |
| 20260506012227 | 77 | 112 | 0.0 | 5.2 | 0.00 | 0.00 | 0.00 | 82 | 1015.0 |
| 20260506011456 | 76 | 161 | 0.9 | 5.2 | 0.00 | 0.00 | 0.00 | 80 | 1015.0 |
| 20260506010945 | 76 | 131 | 0.0 | 4.3 | 0.00 | 0.00 | 0.00 | 81 | 1014.9 |
| 20260506010433 | 76 | 149 | 0.0 | 7.0 | 0.00 | 0.00 | 0.00 | 81 | 1015.0 |
| 20260506005931 | 76 | 149 | 2.6 | 7.0 | 0.00 | 0.00 | 0.00 | 82 | 1015.2 |
| 20260506005651 | 76 | 204 | 0.0 | 7.0 | 0.00 | 0.00 | 0.00 | 81 | 1015.1 |
| 20260506004907 | 75 | 166 | 1.7 | 7.0 | 0.00 | 0.00 | 0.00 | 82 | 1015.1 |
| 20260506004357 | 75 | 111 | 0.0 | 7.0 | 0.00 | 0.00 | 0.00 | 83 | 1015.3 |
| 20260506003853 | 76 | 144 | 0.0 | 7.0 | 0.00 | 0.00 | 0.00 | 84 | 1015.2 |
| 20260506003346 | 76 | 133 | 1.7 | 7.0 | 0.00 | 0.00 | 0.00 | 85 | 1015.5 |
| 20260506002847 | 75 | 135 | 0.0 | 7.8 | 0.00 | 0.00 | 0.00 | 85 | 1015.6 |
| 20260506002347 | 75 | 147 | 3.5 | 7.0 | 0.00 | 0.00 | 0.00 | 85 | 1015.8 |
| 20260506001847 | 75 | 146 | 0.0 | 5.2 | 0.00 | 0.00 | 0.00 | 87 | 1015.6 |
| 20260506001347 | 74 | 171 | 0.0 | 4.3 | 0.00 | 0.00 | 0.00 | 86 | 1015.5 |
| 20260506000847 | 74 | 164 | 0.0 | 5.2 | 0.00 | 0.00 | 0.00 | 88 | 1015.7 |
| 20260506000346 | 74 | 129 | 2.6 | 7.8 | 0.00 | 0.00 | 0.00 | 88 | 1015.8 |
| 20260505235849 | 74 | 159 | 4.3 | 7.8 | 0.00 | 0.00 | 0.00 | 88 | 1015.9 |
| 20260505235618 | 74 | 215 | 0.9 | 7.8 | 0.00 | 0.00 | 0.00 | 89 | 1016.1 |
| 20260505235107 | 74 | 176 | 3.5 | 7.0 | 0.00 | 0.00 | 0.00 | 91 | 1015.9 |
| 20260505234323 | 74 | 158 | 0.0 | 7.0 | 0.00 | 0.00 | 0.00 | 92 | 1015.9 |
| 20260505234053 | 74 | 164 | 2.6 | 7.8 | 0.00 | 0.00 | 0.00 | 92 | 1016.1 |
| 20260505233322 | 73 | 189 | 2.6 | 7.8 | 0.00 | 0.00 | 0.00 | 91 | 1016.0 |
| 20260505232823 | 73 | 137 | 0.0 | 5.2 | 0.00 | 0.00 | 0.00 | 91 | 1015.9 |
| 20260505232323 | 73 | 145 | 3.5 | 7.8 | 0.00 | 0.00 | 0.00 | 91 | 1016.2 |
| 20260505232055 | 73 | 142 | 0.0 | 7.8 | 0.00 | 0.00 | 0.00 | 91 | 1016.4 |
| 20260505231813 | 73 | 139 | 1.7 | 8.7 | 0.00 | 0.00 | 0.00 | 90 | 1016.5 |
| 20260505230811 | 73 | 194 | 3.5 | 8.7 | 0.00 | 0.00 | 0.00 | 90 | 1016.5 |
| 20260505230310 | 73 | 153 | 6.1 | 8.7 | 0.00 | 0.00 | 0.00 | 90 | 1016.6 |
| 20260505225810 | 74 | 235 | 4.3 | 8.7 | 0.00 | 0.00 | 0.00 | 89 | 1016.6 |
| 20260505225311 | 74 | 187 | 1.7 | 7.8 | 0.00 | 0.00 | 0.00 | 88 | 1016.6 |
| 20260505224810 | 74 | 130 | 2.6 | 7.8 | 0.00 | 0.00 | 0.00 | 88 | 1016.6 |
| 20260505224310 | 75 | 112 | 4.3 | 7.0 | 0.00 | 0.00 | 0.00 | 87 | 1016.8 |
| 20260505223810 | 75 | 137 | 3.5 | 5.2 | 0.00 | 0.00 | 0.00 | 86 | 1016.7 |
| 20260505223311 | 75 | 143 | 0.0 | 5.2 | 0.00 | 0.00 | 0.00 | 86 | 1016.9 |
| 20260505222811 | 75 | 100 | 0.0 | 5.2 | 0.00 | 0.00 | 0.00 | 86 | 1016.8 |
| 20260505222310 | 75 | 165 | 2.6 | 5.2 | 0.00 | 0.00 | 0.00 | 88 | 1017.0 |
| 20260505222042 | 75 | 159 | 0.9 | 7.8 | 0.00 | 0.00 | 0.00 | 89 | 1016.9 |
| 20260505221311 | 76 | 152 | 0.0 | 8.7 | 0.00 | 0.00 | 0.00 | 90 | 1017.0 |
| 20260505220811 | 76 | 119 | 0.0 | 8.7 | 0.00 | 0.00 | 0.00 | 88 | 1017.0 |
| 20260505220310 | 76 | 133 | 0.0 | 7.8 | 0.00 | 0.00 | 0.00 | 88 | 1016.9 |
| 20260505215809 | 76 | 124 | 3.5 | 7.0 | 0.00 | 0.00 | 0.00 | 88 | 1017.1 |
| 20260505215310 | 77 | 192 | 0.0 | 7.0 | 0.00 | 0.00 | 0.00 | 88 | 1017.1 |
| 20260505214810 | 77 | 156 | 3.5 | 7.0 | 0.00 | 0.00 | 0.00 | 87 | 1017.1 |
| 20260505214309 | 77 | 0.0 | 0.0 | 0.00 | 0.00 | 0.00 | 86 | ||
| 20260505213049 | 78 | 85 | 0.0 | 7.0 | 0.00 | 0.00 | 0.00 | 83 | 1017.1 |
| 20260505213045 | 78 | 78 | 0.0 | 0.0 | 0.00 | 0.00 | 0.00 | 82 | 1017.3 |
| 20260505212132 | 78 | 78 | 0.0 | 0.0 | 0.00 | 0.00 | 0.00 | 82 | 1017.3 |
| 20260505211648 | 78 | 113 | 7.0 | 7.8 | 0.00 | 0.00 | 0.00 | 85 | 1017.5 |
| 20260505192150 | 74 | 130 | 0.0 | 7.8 | 0.00 | 0.00 | 0.00 | 88 | 1017.6 |
| 20260505191652 | 74 | 154 | 0.9 | 7.0 | 0.00 | 0.00 | 0.00 | 89 | 1017.8 |
| 20260505191151 | 74 | 127 | 3.5 | 8.7 | 0.00 | 0.00 | 0.00 | 89 | 1017.4 |
| 20260505190651 | 74 | 139 | 3.5 | 9.6 | 0.00 | 0.00 | 0.00 | 90 | 1017.6 |
| 20260505190153 | 74 | 152 | 4.3 | 9.6 | 0.00 | 0.00 | 0.00 | 91 | 1017.6 |
| 20260505185651 | 74 | 153 | 2.6 | 5.2 | 0.00 | 0.00 | 0.00 | 92 | 1017.8 |
| 20260505185158 | 74 | 147 | 0.0 | 0.0 | 0.00 | 0.00 | 0.00 | 93 | 1017.6 |
| 20260505185152 | 74 | 156 | 0.0 | 0.0 | 0.00 | 0.00 | 0.00 | 92 | 1017.7 |
| 20260505182556 | 73 | 58 | 0.0 | 0.0 | 0.00 | 0.00 | 0.00 | 93 | 1017.3 |
| 20260505182526 | 73 | 43 | 0.0 | 0.0 | 0.00 | 0.00 | 0.00 | 93 | 1017.1 |
| 20260505181101 | 72 | 49 | 0.0 | 0.0 | 0.00 | 0.00 | 0.00 | 93 | 1017.1 |
| 20260505180832 | 72 | 50 | 0.0 | 0.0 | 0.00 | 0.00 | 0.00 | 93 | 1017.1 |
| 20260505180332 | 72 | 75 | 0.0 | 0.0 | 0.00 | 0.00 | 0.00 | 93 | 1016.9 |
| 20260505175600 | 72 | 139 | 0.0 | 0.0 | 0.00 | 0.00 | 0.00 | 93 | 1017.1 |
| 20260505175101 | 72 | 153 | 0.0 | 0.0 | 0.00 | 0.00 | 0.00 | 94 | 1017.0 |
| 20260505174600 | 72 | 228 | 0.0 | 0.0 | 0.00 | 0.00 | 0.00 | 93 | 1017.1 |
| 20260505174100 | 72 | 229 | 0.0 | 0.0 | 0.00 | 0.00 | 0.00 | 93 | 1016.9 |
| 20260505173831 | 71 | 229 | 0.0 | 0.0 | 0.00 | 0.00 | 0.00 | 93 | 1017.0 |
| 20260505173108 | 71 | 228 | 0.0 | 0.0 | 0.00 | 0.00 | 0.00 | 93 | 1016.6 |
| 20260505173102 | 71 | 228 | 0.0 | 0.0 | 0.00 | 0.00 | 0.00 | 93 | 1016.9 |
| 20260505172100 | 71 | 228 | 0.0 | 0.0 | 0.00 | 0.00 | 0.00 | 93 | 1016.5 |
| 20260505171600 | 71 | 228 | 0.0 | 0.0 | 0.00 | 0.00 | 0.00 | 93 | 1016.7 |
| 20260505171049 | 71 | 228 | 0.0 | 0.0 | 0.00 | 0.00 | 0.00 | 93 | 1016.8 |
| 20260505170530 | 71 | 228 | 0.0 | 0.0 | 0.00 | 0.00 | 0.00 | 93 | 1016.7 |
| 20260505170019 | 71 | 0.0 | 0.0 | 0.00 | 0.00 | 0.00 | 93 | ||
| 20260505153140 | 70 | 139 | 0.0 | 0.0 | 0.00 | 0.00 | 0.00 | 93 | 1015.7 |
| 20260505140227 | 70 | 349 | 0.0 | 4.3 | 0.00 | 0.00 | 0.00 | 90 | 1015.9 |
| 20260505130140 | 73 | 182 | 7.0 | 12.2 | 0.00 | 0.00 | 0.00 | 86 | 1016.3 |
| 20260505124506 | 74 | 127 | 7.8 | 9.6 | 0.00 | 0.00 | 0.00 | 83 | 1016.2 |
| 20260505124006 | 74 | 96 | 0.0 | 7.8 | 0.00 | 0.00 | 0.00 | 83 | 1016.3 |
| 20260505123453 | 74 | 162 | 3.5 | 9.6 | 0.00 | 0.00 | 0.00 | 83 | 1016.1 |
| 20260505122953 | 74 | 152 | 7.0 | 9.6 | 0.00 | 0.00 | 0.00 | 83 | 1016.3 |
| 20260505122442 | 74 | 122 | 3.5 | 11.3 | 0.00 | 0.00 | 0.00 | 83 | 1016.3 |
| 20260505122213 | 74 | 100 | 1.7 | 11.3 | 0.00 | 0.00 | 0.00 | 82 | 1016.5 |
| 20260505121431 | 74 | 110 | 2.6 | 8.7 | 0.00 | 0.00 | 0.00 | 82 | 1016.5 |
| 20260505120917 | 74 | 110 | 3.5 | 8.7 | 0.00 | 0.00 | 0.00 | 82 | 1016.5 |
| 20260505120648 | 74 | 150 | 7.0 | 9.6 | 0.00 | 0.00 | 0.00 | 82 | 1016.4 |
| 20260505120149 | 74 | 139 | 3.5 | 9.6 | 0.00 | 0.00 | 0.00 | 81 | 1016.6 |
| 20260505115420 | 74 | 100 | 5.2 | 9.6 | 0.00 | 0.00 | 0.00 | 81 | 1016.6 |
| 20260505114918 | 74 | 119 | 1.7 | 9.6 | 0.00 | 0.00 | 0.00 | 82 | 1016.6 |
| 20260505114417 | 74 | 127 | 4.3 | 11.3 | 0.00 | 0.00 | 0.00 | 81 | 1016.6 |
| 20260505113919 | 74 | 138 | 5.2 | 11.3 | 0.00 | 0.00 | 0.00 | 81 | 1016.7 |
| 20260505113418 | 74 | 102 | 6.1 | 11.3 | 0.00 | 0.00 | 0.00 | 81 | 1016.7 |
| 20260505112918 | 74 | 108 | 2.6 | 9.6 | 0.00 | 0.00 | 0.00 | 81 | 1016.9 |
| 20260505112649 | 74 | 87 | 4.3 | 9.6 | 0.00 | 0.00 | 0.00 | 81 | 1016.8 |
| 20260505111918 | 74 | 127 | 6.1 | 11.3 | 0.00 | 0.00 | 0.00 | 81 | 1016.9 |
| 20260505111417 | 75 | 98 | 1.7 | 11.3 | 0.00 | 0.00 | 0.00 | 82 | 1017.2 |
| 20260505110917 | 74 | 88 | 4.3 | 9.6 | 0.00 | 0.00 | 0.00 | 82 | 1017.0 |
| 20260505110418 | 74 | 137 | 6.1 | 9.6 | 0.00 | 0.00 | 0.00 | 82 | 1017.3 |
| 20260505101918 | 74 | 136 | 0.9 | 7.0 | 0.00 | 0.00 | 0.00 | 83 | 1018.0 |
| 20260505101419 | 74 | 166 | 0.0 | 7.8 | 0.00 | 0.00 | 0.00 | 83 | 1018.1 |
| 20260505101148 | 74 | 192 | 1.7 | 7.8 | 0.00 | 0.00 | 0.00 | 84 | 1018.0 |
| 20260505100417 | 74 | 157 | 3.5 | 7.0 | 0.00 | 0.00 | 0.00 | 83 | 1018.2 |
| 20260505095917 | 74 | 161 | 3.5 | 7.8 | 0.00 | 0.00 | 0.00 | 82 | 1018.0 |
| 20260505095418 | 74 | 168 | 3.5 | 9.6 | 0.00 | 0.00 | 0.00 | 81 | 1018.2 |
| 20260505094917 | 75 | 139 | 3.5 | 11.3 | 0.00 | 0.00 | 0.00 | 82 | 1018.1 |
| 20260505094417 | 75 | 156 | 6.1 | 12.2 | 0.00 | 0.00 | 0.00 | 82 | 1018.2 |
| 20260505093919 | 75 | 122 | 6.1 | 12.2 | 0.00 | 0.00 | 0.00 | 81 | 1018.2 |
| 20260505093417 | 75 | 101 | 4.3 | 9.6 | 0.00 | 0.00 | 0.00 | 82 | 1018.2 |
| 20260505092917 | 75 | 87 | 1.7 | 9.6 | 0.00 | 0.00 | 0.00 | 81 | 1017.9 |
| 20260505092417 | 74 | 133 | 2.6 | 7.0 | 0.00 | 0.00 | 0.00 | 81 | 1018.1 |
| 20260505091917 | 74 | 115 | 2.6 | 9.6 | 0.00 | 0.00 | 0.00 | 82 | 1018.2 |
| 20260505091417 | 74 | 140 | 1.7 | 9.6 | 0.00 | 0.00 | 0.00 | 82 | 1018.4 |
| 20260505090917 | 74 | 103 | 5.2 | 9.6 | 0.00 | 0.00 | 0.00 | 83 | 1018.4 |
| 20260505090419 | 74 | 145 | 2.6 | 9.6 | 0.00 | 0.00 | 0.00 | 83 | 1018.3 |
| 20260505085917 | 74 | 138 | 4.3 | 9.6 | 0.00 | 0.00 | 0.00 | 83 | 1018.3 |
| 20260505085419 | 74 | 151 | 4.3 | 11.3 | 0.00 | 0.00 | 0.00 | 83 | 1018.5 |
| 20260505084918 | 74 | 137 | 6.1 | 11.3 | 0.00 | 0.00 | 0.00 | 83 | 1018.7 |
| 20260505084417 | 74 | 142 | 2.6 | 8.7 | 0.00 | 0.00 | 0.00 | 83 | 1018.6 |
| 20260505083918 | 74 | 115 | 4.3 | 8.7 | 0.00 | 0.00 | 0.00 | 83 | 1018.6 |
| 20260505083649 | 74 | 127 | 7.0 | 9.6 | 0.00 | 0.00 | 0.00 | 83 | 1018.7 |
| 20260505082918 | 74 | 103 | 3.5 | 9.6 | 0.00 | 0.00 | 0.00 | 83 | 1018.7 |
| 20260505082417 | 74 | 99 | 0.0 | 7.8 | 0.00 | 0.00 | 0.00 | 83 | 1018.6 |
| 20260505081919 | 74 | 125 | 0.0 | 8.7 | 0.00 | 0.00 | 0.00 | 82 | 1018.7 |
| 20260505081418 | 74 | 136 | 1.7 | 8.7 | 0.00 | 0.00 | 0.00 | 82 | 1018.8 |
| 20260505080923 | 74 | 73 | 1.7 | 12.2 | 0.00 | 0.00 | 0.00 | 82 | 1018.7 |
| 20260505080918 | 74 | 124 | 2.6 | 8.7 | 0.00 | 0.00 | 0.00 | 82 | 1018.7 |
| 20260505075918 | 74 | 108 | 6.1 | 12.2 | 0.00 | 0.00 | 0.00 | 82 | 1018.4 |
| 20260505075418 | 74 | 96 | 7.0 | 9.6 | 0.00 | 0.00 | 0.00 | 82 | 1018.5 |
| 20260505074918 | 74 | 141 | 7.8 | 9.6 | 0.00 | 0.00 | 0.00 | 82 | 1018.5 |
| 20260505074648 | 74 | 103 | 3.5 | 11.3 | 0.00 | 0.00 | 0.00 | 82 | 1018.6 |
| 20260505073918 | 75 | 122 | 3.5 | 11.3 | 0.00 | 0.00 | 0.00 | 83 | 1018.6 |
| 20260505073418 | 75 | 98 | 2.6 | 11.3 | 0.00 | 0.00 | 0.00 | 82 | 1018.6 |
| 20260505072917 | 75 | 111 | 5.2 | 8.7 | 0.00 | 0.00 | 0.00 | 83 | 1018.8 |
| 20260505072406 | 75 | 95 | 5.2 | 11.3 | 0.00 | 0.00 | 0.00 | 83 | 1018.8 |
| 20260505071906 | 75 | 104 | 5.2 | 11.3 | 0.00 | 0.00 | 0.00 | 82 | 1019.1 |
| 20260505071406 | 75 | 101 | 5.2 | 9.6 | 0.00 | 0.00 | 0.00 | 82 | 1018.5 |
| 20260505071137 | 75 | 116 | 6.1 | 11.3 | 0.00 | 0.00 | 0.00 | 82 | 1018.6 |
| 20260505070406 | 75 | 117 | 2.6 | 11.3 | 0.00 | 0.00 | 0.00 | 83 | 1018.9 |
| 20260505065906 | 75 | 95 | 3.5 | 9.6 | 0.00 | 0.00 | 0.00 | 83 | 1018.9 |
| 20260505065406 | 75 | 119 | 7.0 | 8.7 | 0.00 | 0.00 | 0.00 | 81 | 1018.7 |
| 20260505064906 | 75 | 104 | 2.6 | 13.9 | 0.00 | 0.00 | 0.00 | 80 | 1018.6 |
| 20260505064406 | 75 | 100 | 4.3 | 13.9 | 0.00 | 0.00 | 0.00 | 81 | 1018.5 |
| 20260505064139 | 75 | 97 | 0.0 | 12.2 | 0.00 | 0.00 | 0.00 | 81 | 1018.9 |
| 20260505063406 | 75 | 103 | 2.6 | 12.2 | 0.00 | 0.00 | 0.00 | 82 | 1018.5 |
| 20260505062906 | 75 | 96 | 5.2 | 9.6 | 0.00 | 0.00 | 0.00 | 82 | 1018.4 |
| 20260505062406 | 76 | 108 | 5.2 | 11.3 | 0.00 | 0.00 | 0.00 | 81 | 1018.6 |
| 20260505061856 | 76 | 133 | 7.8 | 11.3 | 0.00 | 0.00 | 0.00 | 80 | 1018.5 |
| 20260505061344 | 75 | 119 | 7.0 | 8.7 | 0.00 | 0.00 | 0.00 | 78 | 1018.4 |
| 20260505060844 | 75 | 173 | 3.5 | 8.7 | 0.00 | 0.00 | 0.00 | 78 | 1017.9 |
| 20260505060614 | 75 | 111 | 4.3 | 8.7 | 0.00 | 0.00 | 0.00 | 78 | 1018.3 |
| 20260505055843 | 75 | 131 | 3.5 | 8.7 | 0.00 | 0.00 | 0.00 | 78 | 1018.1 |
| 20260505055343 | 75 | 84 | 4.3 | 7.8 | 0.00 | 0.00 | 0.00 | 77 | 1017.9 |
| 20260505054844 | 75 | 145 | 5.2 | 8.7 | 0.00 | 0.00 | 0.00 | 77 | 1017.9 |
| 20260505054344 | 75 | 98 | 3.5 | 11.3 | 0.00 | 0.00 | 0.00 | 77 | 1017.7 |
| 20260505053844 | 75 | 106 | 5.2 | 11.3 | 0.00 | 0.00 | 0.00 | 77 | 1017.9 |
| 20260505053343 | 75 | 130 | 3.5 | 8.7 | 0.00 | 0.00 | 0.00 | 76 | 1017.6 |
| 20260505052843 | 75 | 126 | 6.1 | 9.6 | 0.00 | 0.00 | 0.00 | 77 | 1017.7 |
| 20260505052344 | 75 | 110 | 5.2 | 9.6 | 0.00 | 0.00 | 0.00 | 76 | 1017.7 |
| 20260505051838 | 75 | 118 | 5.2 | 7.8 | 0.00 | 0.00 | 0.00 | 76 | 1017.9 |
| 20260505051332 | 75 | 129 | 2.6 | 7.8 | 0.00 | 0.00 | 0.00 | 77 | 1017.8 |
| 20260505050832 | 75 | 135 | 3.5 | 7.8 | 0.00 | 0.00 | 0.00 | 77 | 1017.9 |
| 20260505050333 | 75 | 125 | 3.5 | 7.8 | 0.00 | 0.00 | 0.00 | 77 | 1017.8 |
| 20260505041338 | 76 | 132 | 2.6 | 9.6 | 0.00 | 0.00 | 0.00 | 78 | 1017.8 |
| 20260505041332 | 76 | 59 | 0.0 | 9.6 | 0.00 | 0.00 | 0.00 | 78 | 1017.6 |
| 20260505040333 | 76 | 53 | 6.1 | 9.6 | 0.00 | 0.00 | 0.00 | 77 | 1017.5 |
| 20260505035332 | 77 | 111 | 4.3 | 12.2 | 0.00 | 0.00 | 0.00 | 78 | 1017.5 |
| 20260505034831 | 77 | 79 | 7.0 | 11.3 | 0.00 | 0.00 | 0.00 | 78 | 1017.5 |